Location: Bovenkerk
(52.2915°N, 4.8336°E)
Time: 21:49:50
(UTC+00:00)

RESURS DK-1 - Pass Details

Date: 09 April 2020
Orbit: 557 x 561 km, 69.9° (Epoch: 25 May)

Event Time Altitude Azimuth Distance (km) Brightness Sun altitude
Rises 20:42:50 0° 326° (NW) 2,764 7.4 -18.6°
Reaches altitude 10° 20:45:03 10° 326° (NW) 1,863 6.2 -18.9°
Maximum altitude 20:49:14 83° 238° (WSW) 573 2.3 -19.4°
Enters shadow 20:50:15 50° 158° (SSE) 721 2.5 -19.5°
